Simultaneous Nadir Overpasses (SNOs) Predictions

Prediction of SNOs between AQUA and METOP-A Satellite Orbit:

Table of predicted SNOs for the next 14.0 days since TLE Epoch: 5/1/2021
Index Date (AQUA) Time (AQUA) Lat,Lon (AQUA) SZA (AQUA ) Date (METOP-A) Time (METOP-A) Lat,Lon (METOP-A) SZA (METOP-A ) Distance(km) Time Diff (sec)
1 05/02/2021 15:44:14 77.31, -71.75 62.12 05/02/2021 15:43:02 77.31, -71.63 62.14 2.98 72
2 05/02/2021 16:33:41 -77.35, 95.70 117.83 05/02/2021 16:33:43 -77.34, 95.82 117.86 3.47 2
3 05/02/2021 17:23:08 77.35, -96.65 62.16 05/02/2021 17:24:22 77.38, -96.68 62.17 3.13 74
4 05/05/2021 11:18:28 77.31, -5.31 61.31 05/05/2021 11:17:24 77.32, -5.23 61.34 2.78 64
5 05/05/2021 12:07:55 -77.35, 162.16 118.66 05/05/2021 12:08:05 -77.36, 162.24 118.66 1.92 10
6 05/05/2021 12:57:30 77.72, -31.72 61.79 05/05/2021 12:58:36 77.74, -28.75 61.62 70.18 66
7 05/08/2021 06:52:41 77.31, 61.10 60.54 05/08/2021 06:51:45 77.34, 61.17 60.57 2.99 56
8 05/08/2021 07:42:08 -77.35,-131.40 119.43 05/08/2021 07:42:26 -77.37,-131.35 119.42 2.76 18
9 05/11/2021 02:26:55 77.33, 127.48 59.82 05/11/2021 02:26:07 77.35, 127.55 59.84 2.73 48
10 05/11/2021 03:16:22 -77.36, -65.00 120.16 05/11/2021 03:16:48 -77.39, -64.95 120.14 3.30 26
11 05/13/2021 22:01:09 77.35,-166.16 59.14 05/13/2021 22:00:29 77.36,-166.07 59.15 2.47 40
12 05/13/2021 22:50:36 -77.38, 1.38 120.84 05/13/2021 22:51:10 -77.40, 1.44 120.83 3.00 34



Historial Predications of SNOs between AQUA and METOP-A
